Weather History for KGRI - January, 2013

Change the Weather History Date:

Friday, January 25, 2013

  Actual Average Record
Temperature  
Mean Temperature 35 °F 25 °F  
Max Temperature 53 °F 36 °F 65 °F (1944)
Min Temperature 17 °F 15 °F -19 °F (1936)
Degree Days  
Heating Degree Days 30 40  
Month to date heating degree days 985 1000  
Since 1 July heating degree days 3310 3519  
Cooling Degree Days 0 0  
Month to date cooling degree days 0 0  
Year to date cooling degree days 0 0  
Moisture  
Dew Point 21 °F    
Average Humidity 60    
Maximum Humidity 92    
Minimum Humidity 28    
Precipitation  
Precipitation 0.00 in 0.01 in 0.41 in (1950)
Month to date precipitation 0.10 0.41  
Year to date precipitation 0.10 0.41  
Snow  
Snow 0.00 in 0.30 in 5.00 in (1950)
Month to date snowfall 0.4 5.1  
Since 1 July snowfall 10.2 14.4  
Snow Depth 0.00 in    
Sea Level Pressure  
Sea Level Pressure 30.21 in    
Wind  
Wind Speed 6 mph (WSW)    
Max Wind Speed 10 mph    
Max Gust Speed 14 mph    
Visibility 10 miles    
Events      
T = Trace of Precipitation, MM = Missing Value Source: NWS Daily Summary

Daily Weather History Graph

Daily Weather History Graph

Search for Another Location

Airport or City:

Trip Planner

Search our weather history database for the weather conditions in past years. The results will help you decide how hot, cold, wet, or windy it might be!

Date:

Astronomy

Jan. 25, 2013 Rise Set
Actual Time 7:49 AM CST 5:42 PM CST
Civil Twilight 7:20 AM CST 6:11 PM CST
Nautical Twilight 6:46 AM CST 6:44 PM CST
Astronomical Twilight 6:14 AM CST 7:17 PM CST
Moon 4:40 PM CST (1/25) 6:30 AM CST (1/25)
Length of Visible Light 10h 51m
Length of Day
9h 52m
Waxing Gibbous, 98% of the Moon is Illuminated
Jan 25
Waxing Gibbous
Jan 26
Full
Feb 3
Last Quarter
Feb 10
New
Feb 17
First Quarter

Hourly Weather History & Observations

Time (CST) Temp. Windchill Dew Point Humidity Pressure Visibility Wind Dir Wind Speed Gust Speed Precip Events Conditions
12:53 AM 18.0 °F 8.7 °F 9.0 °F 68% 30.22 in 10.0 mi SW 6.9 mph - N/A   Clear
1:53 AM 18.0 °F 8.7 °F 10.0 °F 71% 30.20 in 10.0 mi SW 6.9 mph - N/A   Clear
2:53 AM 19.0 °F 9.0 °F 10.9 °F 71% 30.21 in 10.0 mi WSW 8.1 mph - N/A   Clear
3:53 AM 18.0 °F 7.7 °F 12.0 °F 78% 30.20 in 10.0 mi West 8.1 mph - N/A   Clear
4:53 AM 18.0 °F 6.9 °F 12.9 °F 81% 30.20 in 10.0 mi West 9.2 mph - N/A   Clear
5:53 AM 18.0 °F 8.7 °F 12.9 °F 81% 30.20 in 10.0 mi West 6.9 mph - N/A   Clear
6:53 AM 19.0 °F 9.0 °F 14.0 °F 81% 30.22 in 10.0 mi West 8.1 mph - N/A   Clear
7:53 AM 18.0 °F 12.7 °F 15.1 °F 88% 30.24 in 10.0 mi WSW 3.5 mph - N/A   Clear
8:53 AM 26.1 °F 21.9 °F 19.0 °F 75% 30.24 in 10.0 mi West 3.5 mph - N/A   Clear
9:53 AM 34.0 °F 28.0 °F 23.0 °F 64% 30.25 in 10.0 mi WNW 6.9 mph - N/A   Clear
10:25 AM 39.2 °F 32.5 °F 24.8 °F 56% 30.20 in 10.0 mi NW 10.4 mph - N/A   Clear
10:53 AM 42.1 °F 37.1 °F 25.0 °F 51% 30.27 in 10.0 mi West 8.1 mph - N/A   Clear
11:53 AM 46.0 °F 42.5 °F 23.0 °F 40% 30.25 in 10.0 mi North 6.9 mph - N/A   Clear
12:53 PM 48.9 °F - 21.0 °F 33% 30.21 in 10.0 mi NNE 6.9 mph - N/A   Clear
1:53 PM 51.1 °F - 19.0 °F 28% 30.20 in 10.0 mi Calm Calm - N/A   Clear
2:53 PM 51.1 °F - 19.9 °F 29% 30.19 in 10.0 mi Calm Calm - N/A   Clear
3:53 PM 50.0 °F - 26.1 °F 39% 30.19 in 10.0 mi SSW 8.1 mph - N/A   Clear
4:53 PM 45.0 °F 41.2 °F 28.9 °F 53% 30.19 in 10.0 mi South 6.9 mph - N/A   Clear
5:53 PM 37.9 °F 31.5 °F 28.0 °F 68% 30.20 in 10.0 mi South 9.2 mph - N/A   Clear
6:53 PM 37.9 °F 32.1 °F 28.0 °F 68% 30.22 in 10.0 mi SSW 8.1 mph - N/A   Clear
7:53 PM 35.1 °F 32.2 °F 28.0 °F 76% 30.23 in 10.0 mi South 3.5 mph - N/A   Clear
8:53 PM 35.1 °F 30.1 °F 28.0 °F 76% 30.21 in 10.0 mi South 5.8 mph - N/A   Clear
9:53 PM 32.0 °F 25.6 °F 27.0 °F 82% 30.20 in 10.0 mi South 6.9 mph - N/A   Clear
10:53 PM 35.1 °F - 27.0 °F 72% 30.20 in 10.0 mi Calm Calm - N/A   Clear
11:53 PM 30.0 °F 22.4 °F 26.1 °F 85% 30.21 in 10.0 mi East 8.1 mph - N/A   Clear